Regional Weather Roundup
Issued by NWS Little Rock, AR

Home | Current Version | Previous Version | Text Only | Print | Product List | Glossary Off
Versions: 1 2 3 4 5 6 7 8 9 10 11 12 13 14 15 16 17 18 19 20 21 22 23 24 25 26 27 28 29 30 31 32 33 34 35 36 37 38 39 40 41 42 43 44 45 46 47 48

000
ASUS44 KLZK 291105
RWRLZK

WEATHER ROUNDUP FOR ARKANSAS
NATIONAL WEATHER SERVICE LITTLE ROCK AR
600 AM CDT WED JUL 29 2015

NOTE: "FAIR" INDICATES FEW OR NO CLOUDS BELOW 12,000 FEET WITH NO
SIGNIFICANT WEATHER AND/OR OBSTRUCTIONS TO VISIBILITY.

ARZ001-003-010-029-291200-
NORTHWEST ARKANSAS

CITY           SKY/WX    TMP DP  RH WIND       PRES   REMARKS
FAYETTEVILLE   CLEAR     71  70  96 S5        30.06R
FORT SMITH     CLEAR     78  73  84 CALM      30.01R
HARRISON       CLEAR     77  69  76 W5        30.07R
BENTONVILLE    CLEAR     73  70  88 CALM      30.06S
ROGERS         CLEAR     77  70  79 S5        30.07R
SILOAM SPGS    CLEAR     73  66  78 SE5       30.04S
HIGHFILL       CLEAR     75  73  93 CALM      30.05R
SPRINGDALE     CLEAR     75  72  88 CALM      30.08
$$

ARZ004-005-016-291200-
NORTH CENTRAL ARKANSAS

CITY           SKY/WX    TMP DP  RH WIND       PRES   REMARKS
BATESVILLE     CLEAR     77  73  88 CALM      30.02R
FLIPPIN        CLEAR     75  72  88 CALM      30.03R
MTN HOME       CLEAR     75  73  93 CALM      30.04R
$$

ARZ040-041-291200-
WEST CENTRAL ARKANSAS

CITY           SKY/WX    TMP DP  RH WIND       PRES   REMARKS
MENA           CLEAR     72  70  94 CALM      30.06R
MOUNT IDA      CLEAR     73  71  93 CALM      30.02R FOG
$$

ARZ009-017-025-026-028-291200-
NORTHEAST ARKANSAS

CITY           SKY/WX    TMP DP  RH WIND       PRES   REMARKS
JONESBORO      CLEAR     79  76  90 W5        30.00R
NEWPORT        CLEAR     80  77  91 CALM      30.02R HX  85
WALNUT RIDGE   CLEAR     79  75  89 SE3       30.00R
BLYTHEVILLE    PTCLDY    81  80  97 SW5       30.01R HX  91
$$

ARZ022-023-033-042-044-291200-
CENTRAL ARKANSAS

CITY           SKY/WX    TMP DP  RH WIND       PRES   REMARKS
LITTLE ROCK    PTCLDY    79  74  84 SW5       30.01R
N LITTLE ROCK    N/A     81  74  77 W5        30.01R HX  87
JACKSONVILLE   CLEAR     76  73  90 CALM      30.01R
SEARCY         CLEAR     76  75  97 CALM      30.03R
HOT SPRINGS    CLEAR     77  73  87 CALM      30.03R
RUSSELLVILLE   CLEAR     75  73  93 CALM      30.01R
CLINTON        FAIR      73  73 100 CALM      30.05R FOG
$$

ARZ036-291200-
EAST ARKANSAS

CITY           SKY/WX    TMP DP  RH WIND       PRES   REMARKS
WEST MEMPHIS   MOCLDY    78  78 100 CALM      30.00R
$$

ARZ050-053-066-070-073-291200-
SOUTHWEST ARKANSAS

CITY           SKY/WX    TMP DP  RH WIND       PRES   REMARKS
ARKADELPHIA    FAIR      76  76 100 CALM      30.02R FOG
CAMDEN         CLEAR     75  72  88 CALM      30.01R FOG
TEXARKANA      CLEAR     78  71  79 SW6       30.02R
EL DORADO      CLEAR     76  73  91 SW3       30.01S
DE QUEEN       CLEAR     73  73 100 CALM      30.00R FOG
$$

ARZ056-057-069-291200-
SOUTHEAST ARKANSAS

CITY           SKY/WX    TMP DP  RH WIND       PRES   REMARKS
PINE BLUFF     CLEAR     77  74  90 CALM      30.01R
STUTTGART      CLEAR     79  73  83 W5        30.01R
MONTICELLO     CLEAR     80  74  81 W3        30.00R HX  85

$$




USA.gov is the U.S. government's official web portal to all federal, state and local government web resources and services.